Regional Weather Roundup
Issued by NWS Northern Indiana

Home | Current Version | Previous Version | Graphics & Text | Print | Product List | Glossary On
Versions: 1 2 3 4 5 6 7 8 9 10 11 12 13 14 15 16 17 18 19 20 21 22 23 24 25 26 27 28 29 30 31 32 33 34 35 36 37 38 39 40 41 42 43 44 45 46 47 48 49 50
000
ASUS43 KIWX 190610
RWRIWX

KIWX WEATHER ROUNDUP
NATIONAL WEATHER SERVICE NORTHERN INDIANA
200 AM EDT SAT APR 19 2014

NOTE: "FAIR" INDICATES FEW OR NO CLOUDS BELOW 12,000 FEET WITH NO
SIGNIFICANT WEATHER AND/OR OBSTRUCTIONS TO VISIBILITY.

* THESE STATIONS ARE NOT UNDER NWS QUALITY CONTROL. THEY ALSO MAY NOT
  REPORT WEATHER SUCH AS PRECIPITATION OR FOG.

INZ001>027-190700-
NORTHERN INDIANA

CITY           SKY/WX    TMP DP  RH WIND       PRES   REMARKS
GARY*          FAIR      39  30  70 NE7       30.37S
VALPARAISO     FAIR      31  24  75 N3        30.35S
6HR MIN TEMP:  31; 6HR MAX TEMP:  42;

MICHIGAN CITY* FAIR      32  28  86 CALM      30.36S
LAPORTE*       FAIR      35  25  66 NE7       30.35S WCI  29
6HR MIN TEMP:  34; 6HR MAX TEMP:  42;

SOUTH BEND     FAIR      34  25  69 NE6       30.35S WCI  29
6HR MIN TEMP:  33; 6HR MAX TEMP:  45;

GOSHEN         FAIR      37  26  64 N6        30.33S
6HR MIN TEMP:  37; 6HR MAX TEMP:  54;

MONTICELLO*    FAIR      34  31  89 N6        30.33F WCI  29
6HR MIN TEMP:  34; 6HR MAX TEMP:  57;

LOGANSPORT*    FAIR      39  30  70 N9        30.33S
ROCHESTER*     FAIR      39  27  60 N3        30.34S
WARSAW*        FAIR      37  28  70 CALM      30.33S
ANGOLA*        CLEAR     39  30  70 CALM      30.33S
FORT WAYNE     FAIR      41  34  76 N8        30.32S
6HR MIN TEMP:  41; 6HR MAX TEMP:  60;

HUNTINGTON*    FAIR      41  33  74 N6        30.32S
6HR MIN TEMP:  41; 6HR MAX TEMP:  59;

PERU/GRISSOM   FAIR      42  31  65 N9        30.30F
6HR MIN TEMP:  42; 6HR MAX TEMP:  59;

MARION*        FAIR      41  34  74 NE8       30.31S
6HR MIN TEMP:  15; 6HR MAX TEMP:  77;


$$
INZ028>050-190700-
CENTRAL INDIANA

CITY           SKY/WX    TMP DP  RH WIND       PRES   REMARKS
LAFAYETTE      FAIR      41  31  67 N8        30.32F
6HR MIN TEMP:  41; 6HR MAX TEMP:  59;

KOKOMO*        FAIR      41  30  65 NE7       30.31F
MUNCIE*        FAIR      43  35  73 N7        30.30R
6HR MIN TEMP:  43; 6HR MAX TEMP:  62;

INDIANAPOLIS   FAIR      47  36  65 NE10      30.29R
6HR MIN TEMP:  47; 6HR MAX TEMP:  63;


$$
MIZ043>046-050>051-056>058-064>065-071>073-077>080-190700-
SOUTHWEST LOWER MICHIGAN

CITY           SKY/WX    TMP DP  RH WIND       PRES   REMARKS
BATTLE CREEK   FAIR      40  28  62 NE13      30.36R
6HR MIN TEMP:  40; 6HR MAX TEMP:  52;

BENTON HARBOR  FAIR      29  26  89 CALM      30.36R
6HR MIN TEMP:  28; 6HR MAX TEMP:  38;

COLDWATER*     FAIR      40  32  73 NE8       30.33S
6HR MIN TEMP:  39; 6HR MAX TEMP:  55;

HILLSDALE*     FAIR      44  33  66 NE7       30.32S
HOLLAND        FAIR      39  26  59 NE6       30.38S
6HR MIN TEMP:  39; 6HR MAX TEMP:  42;

GRAND RAPIDS   FAIR      37  25  61 NE9       30.39R
6HR MIN TEMP:  37; 6HR MAX TEMP:  52;

KALAMAZOO      FAIR      42  30  62 NE8       30.36R
6HR MIN TEMP:  36; 6HR MAX TEMP:  50;

STURGIS*       FAIR      37  30  75 N7        30.33S
THREE RIVERS*  FAIR      38  28  68 CALM      30.35S

$$
OHZ001>008-015>018-024>025-190700-
NORTHWEST OHIO

CITY           SKY/WX    TMP DP  RH WIND       PRES   REMARKS
WAUSEON*       FAIR      43  41  93 NE10      30.33R FOG
DEFIANCE       FAIR      45  36  70 N5        30.32S
6HR MIN TEMP:  43; 6HR MAX TEMP:  62;

FINDLAY        FAIR      46  41  82 NE10      30.29R
6HR MIN TEMP:  46; 6HR MAX TEMP:  63;

TOLEDO EXPRESS FAIR      41  36  82 NE10      30.33R
6HR MIN TEMP:  41; 6HR MAX TEMP:  56;

TOLEDO METCALF FAIR      41  35  79 NE14G21   30.35R
6HR MIN TEMP:  41; 6HR MAX TEMP:  55;

LIMA           FAIR      46  41  82 NE8       30.28S
6HR MIN TEMP:  46; 6HR MAX TEMP:  62;


$$
&&



USA.gov is the U.S. government's official web portal to all federal, state and local government web resources and services.